Tracking 19246 objects as of 21-Aug-2018
HD Live streaming from Space Station
objects crossing your sky now

COSMOS 1927

Track COSMOS 1927 now!
10-day predictions
COSMOS 1927 is classified as:


NORAD ID: 18940
Int'l Code: 1988-016D
Perigee: 1,461.8 km
Apogee: 1,474.1 km
Inclination: 74.0 °
Period: 115.1 minutes
Semi major axis: 7838 km
RCS: 0.7207 m2 (medium)
Launch date: March 11, 1988
Source: Commonwealth of Independent States (former USSR) (CIS)
Launch site: PLESETSK MISSILE AND SPACE COMPLEX (PKMTR)
aabbcc
Your satellite tracking list
Your tracking list is empty




NASA's NSSDC Master Catalog

Two Line Element Set (TLE):
1 18940U 88016D   18232.66694299 -.00000028  00000-0 -76600-4 0  9997
2 18940  74.0053 120.8821 0007844 208.5385 166.7839 12.50874082390378
Source of the keplerian elements: AFSPC